User: anonymous   Login
Location: Bittelbronn
(48.4454°N, 8.5870°E)
Time: 21:40:49
(UTC+00:00)
Language:

Cosmos 1408 - Orbit

View from above orbital plane
View from above orbital plane
View from above satellite
View from above satellite

Ground track
Ground track

The orbit data is extracted from the following two-line orbital elements,

1 13552U 82092A   24197.52356306  .00065524  00000-0  55437-3 0  9999
2 13552  82.5527 212.1225 0012050 207.6307 152.4316 15.69388825149927
Epoch (UTC): 15 July 2024 12:33:55
Eccentricity: 0.0012050
inclination: 82.5527°
perigee height: 352 km
apogee height: 369 km
right ascension of ascending node: 212.1225°
argument of perigee: 207.6307°
revolutions per day: 15.69388825
mean anomaly at epoch: 152.4316°
orbit number at epoch: 14992

The dashed part of the orbit path shows where the satellite is in the earth's shadow,  

DLR